CW1909 Weather Reports


Display with metric or nautical units.
time (UTC)temp
F
wind
direction
speed
MPH
gust
MPH
rain 1hr
in
rain 24hr
in
rain mn
in
humidity
%
barometer
mb
20220818222404 100 218 3.0 8.0 0.00 0.00 0.00 25 1010.8
20220818221405 100 183 2.0 7.0 0.00 0.00 0.00 24 1010.9
20220818214404 101 228 2.0 9.0 0.00 0.00 0.00 24 1011.0
20220818213404 100 203 3.0 12.0 0.00 0.00 0.00 24 1011.1
20220818212404 101 228 3.0 9.0 0.00 0.00 0.00 25 1011.3
20220818210405 101 237 4.0 10.0 0.00 0.00 0.00 25 1011.5
20220818204405 100 249 3.0 10.0 0.00 0.00 0.00 25 1011.6
20220818201905 100 240 4.0 9.0 0.00 0.00 0.00 26 1011.8
20220818195405 100 213 5.0 8.0 0.00 0.00 0.00 25 1012.1
20220818193405 99 226 2.0 9.0 0.00 0.00 0.00 27 1012.3
20220818191404 97 241 3.0 9.0 0.00 0.00 0.00 25 1012.6
20220818190905 98 202 1.0 8.0 0.00 0.00 0.00 26 1012.6
20220818183405 96 266 3.0 8.0 0.00 0.00 0.00 24 1012.9
20220818182904 95 233 1.0 7.0 0.00 0.00 0.00 24 1012.9
20220818181405 95 225 2.0 8.0 0.00 0.00 0.00 26 1013.1
20220818180404 93 263 2.0 5.0 0.00 0.00 0.00 25 1013.2
20220818175905 92 276 1.0 3.0 0.00 0.00 0.00 24 1013.2
20220818173905 91 244 1.0 5.0 0.00 0.00 0.00 24 1013.4
20220818172905 89 240 1.0 5.0 0.00 0.00 0.00 27 1013.5
20220818171904 88 240 1.0 2.0 0.00 0.00 0.00 28 1013.5
20220818165405 86 243 1.0 5.0 0.00 0.00 0.00 24 1013.6
20220818161905 81 259 0.0 2.0 0.00 0.00 0.00 29 1013.9
20220818160904 80 259 0.0 2.0 0.00 0.00 0.00 31 1013.9
20220818155905 79 259 0.0 1.0 0.00 0.00 0.00 33 1014.0
20220818154904 77 259 0.0 0.0 0.00 0.00 0.00 33 1014.0
20220818152904 74 259 0.0 0.0 0.00 0.00 0.00 38 1014.1
20220818152404 73 259 0.0 0.0 0.00 0.00 0.00 38 1014.2
20220818144904 69 259 0.0 0.0 0.00 0.00 0.00 40 1014.1
20220818140904 65 259 0.0 0.0 0.00 0.00 0.00 49 1014.0
20220818135904 65 259 0.0 0.0 0.00 0.00 0.00 49 1014.1
20220818133904 65 259 0.0 0.0 0.00 0.00 0.00 49 1013.8
20220818125904 64 259 0.0 0.0 0.00 0.00 0.00 56 1013.6
20220818124905 65 259 0.0 0.0 0.00 0.00 0.00 55 1013.6
20220818123905 65 259 0.0 0.0 0.00 0.00 0.00 54 1013.5
20220818123404 64 259 0.0 0.0 0.00 0.00 0.00 53 1013.5
20220818111904 66 259 0.0 0.0 0.00 0.00 0.00 50 1013.7
20220818111405 67 259 0.0 0.0 0.00 0.00 0.00 48 1013.7
20220818110904 67 259 0.0 0.0 0.00 0.00 0.00 49 1013.7
20220818103905 67 259 0.0 0.0 0.00 0.00 0.00 47 1013.7
20220818095904 68 259 0.0 0.0 0.00 0.00 0.00 45 1013.7
20220818095404 68 259 0.0 0.0 0.00 0.00 0.00 47 1013.7
20220818094905 68 259 0.0 0.0 0.00 0.00 0.00 49 1013.8
20220818093904 68 259 0.0 0.0 0.00 0.00 0.00 49 1013.6
20220818090904 69 259 0.0 0.0 0.00 0.00 0.00 60 1013.7
20220818085405 70 259 0.0 0.0 0.00 0.00 0.00 55 1013.7
20220818083905 70 259 0.0 0.0 0.00 0.00 0.00 54 1013.7
20220818081905 70 259 0.0 0.0 0.00 0.00 0.00 54 1013.7
20220818081406 71 259 0.0 0.0 0.00 0.00 0.00 53 1013.8
20220818080905 70 259 0.0 0.0 0.00 0.00 0.00 53 1013.8
20220818073905 72 259 0.0 0.0 0.00 0.00 0.00 51 1013.8
20220818072405 72 259 0.0 0.0 0.00 0.00 0.00 49 1013.7
20220818071905 73 259 0.0 0.0 0.00 0.00 0.00 48 1013.7
20220818070905 73 259 0.0 0.0 0.00 0.00 0.00 46 1013.7
20220818062404 74 259 0.0 0.0 0.00 0.00 0.00 41 1013.6
20220818061405 75 259 0.0 0.0 0.00 0.00 0.00 41 1013.6
20220818051905 77 259 0.0 0.0 0.00 0.00 0.00 34 1013.4
20220818051405 77 259 0.0 0.0 0.00 0.00 0.00 33 1013.3
20220818050905 78 259 0.0 0.0 0.00 0.00 0.00 33 1013.3
20220818050405 78 259 0.0 0.0 0.00 0.00 0.00 32 1013.2
20220818045905 79 259 0.0 1.0 0.00 0.00 0.00 32 1013.2
20220818045404 79 259 0.0 0.0 0.00 0.00 0.00 31 1013.2
20220818044405 80 259 0.0 0.0 0.00 0.00 0.00 30 1013.0
20220818035904 82 259 0.0 0.0 0.00 0.00 0.00 27 1012.8
20220818034905 82 259 0.0 0.0 0.00 0.00 0.00 28 1012.5
20220818033405 83 259 0.0 0.0 0.00 0.00 0.00 27 1012.3
20220818030405 85 259 0.0 3.0 0.00 0.00 0.00 24 1012.0
20220818025405 86 256 1.0 5.0 0.00 0.00 0.00 23 1011.8
20220818024405 87 238 2.0 6.0 0.00 0.00 0.00 22 1011.7
20220818021904 90 231 2.0 7.0 0.00 0.00 0.00 20 1011.2
20220818020404 92 268 0.0 3.0 0.00 0.00 0.00 19 1011.2
20220818015404 94 268 1.0 5.0 0.00 0.00 0.00 16 1011.1
20220818014405 95 280 2.0 6.0 0.00 0.00 0.00 14 1011.0
20220818013404 95 283 3.0 8.0 0.00 0.00 0.00 16 1011.0
20220818004904 97 266 5.0 8.0 0.00 0.00 0.00 15 1011.0
20220818003404 98 270 4.0 10.0 0.00 0.00 0.00 15 1011.1
20220818002905 98 244 5.0 8.0 0.00 0.00 0.00 17 1011.1
20220817235904 99 225 5.0 9.0 0.00 0.00 0.00 21 1011.2
20220817235404 99 213 2.0 8.0 0.00 0.00 0.00 23 1011.1
20220817234904 99 195 3.0 8.0 0.00 0.00 0.00 22 1011.1
20220817232905 99 220 1.0 10.0 0.00 0.00 0.00 21 1011.2
20220817231404 99 225 2.0 7.0 0.00 0.00 0.00 24 1011.0